• In Deutschland
  • Länderverzeichnis
  • Für 7 Tage
  • Wassertemperatur
  • Satellitenkarten
  • Wetterkarte
  • Widgets
  • user-avatar
    Anmelden

    Stündliche Wetter Salzburg

    Heute, 12 Dezember, Dienstag

    Zeit Temperatur Niederschläge Wind Luftdruck Luftfeuchtigkeit
    00:00 -2°C° 0,5 mm 3 m/S 609 mmHg 92%
    01:00 -2°C° 0,5 mm 3 m/S 609 mmHg 93%
    02:00 -2°C° 1,7 mm 3 m/S 610 mmHg 93%
    03:00 -2°C° 1,7 mm 3 m/S 611 mmHg 94%
    04:00 -4°C° 1,7 mm 3 m/S 611 mmHg 94%
    05:00 -4°C° 1,2 mm 3 m/S 612 mmHg 94%
    06:00 -4°C° 1,2 mm 3 m/S 613 mmHg 94%
    07:00 -5°C° 1,2 mm 3 m/S 614 mmHg 94%
    08:00 -5°C° 0,7 mm 3 m/S 615 mmHg 94%
    09:00 -5°C° 0,7 mm 3 m/S 616 mmHg 94%
    10:00 -6°C° 0,7 mm 3 m/S 617 mmHg 94%
    11:00 -6°C° 0,5 mm 3 m/S 617 mmHg 93%
    12:00 -6°C° 0,5 mm 3 m/S 618 mmHg 93%
    13:00 -7°C° 0,5 mm 3 m/S 618 mmHg 92%
    14:00 -6°C° 0,5 mm 2 m/S 618 mmHg 93%
    15:00 -7°C° 0,5 mm 2 m/S 619 mmHg 93%
    16:00 -7°C° 0,5 mm 2 m/S 619 mmHg 94%
    17:00 -7°C° 0,5 mm 1 m/S 619 mmHg 94%
    18:00 -7°C° 0,5 mm 1 m/S 620 mmHg 94%
    19:00 -8°C° 0,5 mm 1 m/S 620 mmHg 94%
    20:00 -8°C° 0,4 mm 1 m/S 621 mmHg 94%
    21:00 -9°C° 0,4 mm 2 m/S 621 mmHg 93%
    22:00 -9°C° 0,4 mm 2 m/S 621 mmHg 93%
    23:00 -9°C° 0,4 mm 2 m/S 622 mmHg 93%

    Morgen, 13 Dezember, Mittwoch

    Zeit Temperatur Niederschläge Wind Luftdruck Luftfeuchtigkeit
    00:00 -9°C° 0,4 mm 2 m/S 622 mmHg 93%
    01:00 -8°C° 0,4 mm 1 m/S 622 mmHg 92%
    02:00 -8°C° 0,2 mm 1 m/S 622 mmHg 92%
    03:00 -9°C° 0,2 mm 1 m/S 623 mmHg 92%
    04:00 -9°C° 0,2 mm 1 m/S 623 mmHg 91%
    05:00 -9°C° 0,1 mm 1 m/S 623 mmHg 91%
    06:00 -10°C° 0,1 mm 1 m/S 623 mmHg 90%
    07:00 -10°C° 0,1 mm 1 m/S 623 mmHg 90%
    08:00 -9°C° 0 mm 1 m/S 623 mmHg 88%
    09:00 -8°C° 0 mm 1 m/S 623 mmHg 86%
    10:00 -7°C° 0 mm 1 m/S 623 mmHg 84%
    11:00 -6°C° 0 mm 1 m/S 623 mmHg 82%
    12:00 -4°C° 0 mm 1 m/S 623 mmHg 80%
    13:00 -3°C° 0 mm 1 m/S 623 mmHg 78%
    14:00 -6°C° 0 mm 2 m/S 622 mmHg 81%
    15:00 -7°C° 0 mm 2 m/S 621 mmHg 84%
    16:00 -7°C° 0 mm 2 m/S 620 mmHg 86%
    17:00 -8°C° 0 mm 2 m/S 620 mmHg 86%
    18:00 -8°C° 0 mm 2 m/S 620 mmHg 86%
    19:00 -9°C° 0 mm 2 m/S 619 mmHg 86%
    20:00 -9°C° 0 mm 2 m/S 619 mmHg 85%
    21:00 -9°C° 0 mm 2 m/S 619 mmHg 84%
    22:00 -9°C° 0 mm 2 m/S 618 mmHg 82%
    23:00 -8°C° 0 mm 2 m/S 618 mmHg 81%

    übermorgen, 14 Dezember, Donnerstag

    Zeit Temperatur Niederschläge Wind Luftdruck Luftfeuchtigkeit
    00:00 -8°C° 0 mm 2 m/S 618 mmHg 81%
    01:00 -9°C° 0 mm 3 m/S 617 mmHg 80%
    02:00 -9°C° 0 mm 3 m/S 617 mmHg 80%
    03:00 -8°C° 0 mm 3 m/S 616 mmHg 80%
    04:00 -8°C° 0 mm 3 m/S 616 mmHg 80%
    05:00 -8°C° 0,1 mm 3 m/S 616 mmHg 80%
    06:00 -6°C° 0,1 mm 2 m/S 616 mmHg 81%
    07:00 -6°C° 0,1 mm 2 m/S 616 mmHg 82%
    08:00 -5°C° 0,1 mm 2 m/S 617 mmHg 82%
    09:00 -5°C° 0,1 mm 2 m/S 617 mmHg 83%
    10:00 -2°C° 0,1 mm 1 m/S 617 mmHg 83%
    11:00 -2°C° 0,6 mm 1 m/S 617 mmHg 86%
    12:00 -2°C° 0,6 mm 1 m/S 617 mmHg 88%
    13:00 -2°C° 0,6 mm 1 m/S 617 mmHg 90%
    14:00 -2°C° 0,8 mm 1 m/S 616 mmHg 92%
    15:00 -2°C° 0,8 mm 1 m/S 616 mmHg 93%
    16:00 -3°C° 0,8 mm 1 m/S 615 mmHg 94%
    17:00 -3°C° 0,3 mm 1 m/S 615 mmHg 93%
    18:00 -4°C° 0,3 mm 1 m/S 614 mmHg 93%
    19:00 -6°C° 0,3 mm 2 m/S 614 mmHg 92%
    20:00 -6°C° 0,1 mm 2 m/S 613 mmHg 90%
    21:00 -7°C° 0,1 mm 2 m/S 613 mmHg 87%
    22:00 -8°C° 0,1 mm 3 m/S 612 mmHg 85%
    23:00 -7°C° 0,3 mm 3 m/S 612 mmHg 87%

    15 Dezember, Freitag

    Zeit Temperatur Niederschläge Wind Luftdruck Luftfeuchtigkeit
    00:00 -7°C° 0,3 mm 3 m/S 612 mmHg 90%
    01:00 -7°C° 0,3 mm 3 m/S 612 mmHg 92%
    02:00 -6°C° 0,8 mm 2 m/S 612 mmHg 93%
    03:00 -6°C° 0,8 mm 2 m/S 612 mmHg 93%
    04:00 -6°C° 0,8 mm 2 m/S 613 mmHg 94%
    05:00 -7°C° 0,3 mm 2 m/S 613 mmHg 93%
    06:00 -6°C° 0,3 mm 1 m/S 613 mmHg 93%
    07:00 -6°C° 0,3 mm 1 m/S 613 mmHg 92%
    08:00 -6°C° 0,3 mm 1 m/S 613 mmHg 91%
    09:00 -6°C° 0,3 mm 1 m/S 613 mmHg 91%
    10:00 -4°C° 0,3 mm 1 m/S 613 mmHg 90%
    11:00 -4°C° 0,1 mm 1 m/S 613 mmHg 89%
    12:00 -3°C° 0,1 mm 1 m/S 613 mmHg 88%
    13:00 -2°C° 0,1 mm 1 m/S 613 mmHg 87%
    14:00 -3°C° 0,2 mm 1 m/S 613 mmHg 89%
    15:00 -4°C° 0,2 mm 1 m/S 613 mmHg 91%
    16:00 -6°C° 0,2 mm 1 m/S 612 mmHg 93%
    17:00 -6°C° 0,2 mm 1 m/S 612 mmHg 92%
    18:00 -6°C° 0,2 mm 1 m/S 612 mmHg 91%
    19:00 -7°C° 0,2 mm 1 m/S 612 mmHg 90%
    20:00 -7°C° 0 mm 1 m/S 612 mmHg 89%
    21:00 -7°C° 0 mm 1 m/S 612 mmHg 87%
    22:00 -8°C° 0 mm 1 m/S 612 mmHg 85%
    23:00 -8°C° 0,1 mm 1 m/S 612 mmHg 84%

    16 Dezember, Samstag

    Zeit Temperatur Niederschläge Wind Luftdruck Luftfeuchtigkeit
    00:00 -8°C° 0,1 mm 1 m/S 612 mmHg 83%
    01:00 -8°C° 0,1 mm 1 m/S 613 mmHg 83%
    02:00 -9°C° 0,3 mm 2 m/S 613 mmHg 86%
    03:00 -9°C° 0,3 mm 2 m/S 613 mmHg 90%
    04:00 -9°C° 0,3 mm 2 m/S 614 mmHg 93%
    05:00 -9°C° 0,4 mm 2 m/S 614 mmHg 93%
    06:00 -9°C° 0,4 mm 2 m/S 615 mmHg 93%
    07:00 -9°C° 0,4 mm 2 m/S 616 mmHg 93%
    08:00 -8°C° 0,2 mm 2 m/S 616 mmHg 92%
    09:00 -8°C° 0,2 mm 2 m/S 617 mmHg 90%
    10:00 -8°C° 0,2 mm 2 m/S 617 mmHg 89%
    11:00 -8°C° 0,1 mm 2 m/S 618 mmHg 87%
    12:00 -7°C° 0,1 mm 2 m/S 618 mmHg 85%
    13:00 -7°C° 0,1 mm 2 m/S 618 mmHg 82%
    14:00 -8°C° 0 mm 2 m/S 618 mmHg 84%
    15:00 -9°C° 0 mm 2 m/S 618 mmHg 86%
    16:00 -9°C° 0 mm 1 m/S 618 mmHg 88%
    17:00 -10°C° 0,1 mm 2 m/S 618 mmHg 88%
    18:00 -12°C° 0,1 mm 2 m/S 618 mmHg 87%
    19:00 -12°C° 0,1 mm 2 m/S 619 mmHg 87%
    20:00 -13°C° 0,1 mm 2 m/S 619 mmHg 87%
    21:00 -13°C° 0,1 mm 2 m/S 619 mmHg 86%
    22:00 -13°C° 0,1 mm 2 m/S 619 mmHg 86%
    23:00 -13°C° 0,1 mm 2 m/S 619 mmHg 85%

    17 Dezember, Sonntag

    Zeit Temperatur Niederschläge Wind Luftdruck Luftfeuchtigkeit
    00:00 -13°C° 0,1 mm 2 m/S 619 mmHg 84%
    01:00 -13°C° 0,1 mm 2 m/S 619 mmHg 83%
    02:00 -13°C° 0 mm 2 m/S 619 mmHg 84%
    03:00 -13°C° 0 mm 2 m/S 619 mmHg 84%
    04:00 -13°C° 0 mm 2 m/S 620 mmHg 85%
    05:00 -13°C° 0,1 mm 2 m/S 620 mmHg 85%
    06:00 -13°C° 0,1 mm 2 m/S 620 mmHg 86%
    07:00 -13°C° 0,1 mm 2 m/S 620 mmHg 87%
    08:00 -12°C° 0,2 mm 2 m/S 621 mmHg 87%
    09:00 -10°C° 0,2 mm 2 m/S 622 mmHg 88%
    10:00 -10°C° 0,2 mm 2 m/S 622 mmHg 89%
    11:00 -9°C° 0,2 mm 2 m/S 622 mmHg 88%
    12:00 -9°C° 0,2 mm 2 m/S 622 mmHg 87%
    13:00 -8°C° 0,2 mm 2 m/S 623 mmHg 86%
    14:00 -9°C° 0,2 mm 2 m/S 623 mmHg 88%
    15:00 -9°C° 0,2 mm 2 m/S 623 mmHg 91%
    16:00 -10°C° 0,2 mm 2 m/S 623 mmHg 93%
    17:00 -10°C° 0,2 mm 2 m/S 623 mmHg 93%
    18:00 -12°C° 0,2 mm 2 m/S 624 mmHg 94%
    19:00 -12°C° 0,2 mm 2 m/S 624 mmHg 94%
    20:00 -12°C° 0,2 mm 2 m/S 624 mmHg 93%
    21:00 -12°C° 0,2 mm 2 m/S 624 mmHg 92%
    22:00 -13°C° 0,2 mm 2 m/S 625 mmHg 92%
    23:00 -13°C° 0 mm 2 m/S 624 mmHg 90%
    Mehr zeigen